Flag for Brazil Weather past 2 weeks in Belo Horizonte, Minas Gerais, Brazil

Now
79 °F

Passing clouds.


Feels Like: 80 °F
Forecast: 71 / 85 °F
Wind: 9 mph from East

Location: Belo Horizonte Airport

Current Time: Dec 19, 2014 at 11:10:12 PM

Latest Report: Dec 19, 2014 at 10:00 PM


Visibility: N/A

Pressure: 29.95 "Hg

Humidity: 54%

Dew point: 61 °F

Location of Belo HorizonteLocation

Historic Weather in Belo Horizonte — Graph

°F

Belo Horizonte temperature yesterday

Maximum temperature yesterday: 84 °F (at 5:00 PM)
Minimum temperature yesterday: 68 °F (at 6:00 AM)
Average temperature yesterday: 76 °F

Past Weeks' High & Low Weather Summary

 TemperatureHumidityPressure
High88 °F (Dec 19, 4:00 PM)100% (Dec 17, 6:00 AM)30.15 "Hg (Dec 17, 6:00 AM)
Low61 °F (Dec 17, 6:00 AM)29% (Dec 17, 5:00 PM)29.86 "Hg (Dec 13, 5:00 PM)
Average73 °F69%30.02 "Hg
* Reported Dec 4 10:00 PM — Dec 19 10:00 PM, Belo Horizonte, Weather by CustomWeather, © 2014

Note: Actual official high and low records may vary slightly from our data, if they occured in-between our weather recording intervals... More about our weather records

Advertising

Belo Horizonte weather history for previous 24 hours

 ConditionsComfort  
Time TempWeatherWind HumidityBarometerVisibility
10:00 PM
Dec 19
79 °FPassing clouds.9 mph54%29.95 "HgN/A
9:00 PM79 °FThunderstorms. Passing clouds.9 mph54%29.92 "HgN/A
8:00 PM81 °FThunderstorms. Scattered clouds.15 mph54%29.89 "HgN/A
7:00 PM86 °FPassing clouds.5 mph38%29.86 "HgN/A
6:00 PM88 °FPassing clouds.7 mph31%29.86 "HgN/A
5:00 PM88 °FScattered clouds.6 mph33%29.86 "HgN/A
4:00 PM88 °FScattered clouds.7 mph35%29.86 "HgN/A
3:00 PM86 °FScattered clouds.3 mph38%29.92 "HgN/A
2:00 PM86 °FScattered clouds.5 mph43%29.95 "HgN/A
1:00 PM84 °FScattered clouds.2 mph43%29.98 "HgN/A
12:00 PM82 °FScattered clouds.5 mph48%29.98 "HgN/A
11:00 AM79 °FPassing clouds.5 mph54%30.01 "HgN/A
10:00 AM77 °FPassing clouds.5 mph57%30.01 "HgN/A
9:00 AM75 °FScattered clouds.6 mph69%29.98 "HgN/A
8:00 AM70 °FScattered clouds.3 mph78%29.98 "HgN/A
7:00 AM70 °FPassing clouds.6 mph73%29.98 "HgN/A
6:00 AM70 °FClear.6 mph73%29.95 "Hg10 mi
5:00 AM68 °FClear.No wind78%29.95 "Hg10 mi
4:00 AM70 °FClear.8 mph73%29.92 "Hg10 mi
3:00 AM72 °FClear.8 mph69%29.95 "Hg10 mi
2:00 AM72 °FClear.8 mph65%29.95 "Hg10 mi
1:00 AM73 °FClear.8 mph61%29.98 "Hg10 mi
12:00 AM73 °FClear.6 mph61%29.98 "Hg10 mi
11:00 PM
Dec 18
75 °FClear.5 mph57%29.95 "Hg10 mi
Weather by CustomWeather, © 2014

See weather overviewHow to use our weather pages